User: anonymous   Login
Location: Unspecified
(0.0000°N, 0.0000°E)
Time: 15:21:45
(UTC+02:00)
Language:

Milstar 3 Cent rocket - Orbit

View from above orbital plane
View from above orbital plane
View from above satellite
View from above satellite

Ground track
Ground track

The orbit data is extracted from the following two-line orbital elements,

1 25725U 99023B   16234.07882323 0.00000000  00000-0  00000-0 0    06
2 25725  28.3141 200.9349 2386418 160.4643 199.5352  9.67238005    09
Epoch (UTC): 21 August 2016 01:53:30
Eccentricity: 0.2386418
inclination: 28.3141°
perigee height: 706 km
apogee height: 5147 km
right ascension of ascending node: 200.9349°
argument of perigee: 160.4643°
revolutions per day: 9.67238005
mean anomaly at epoch: 199.5352°
orbit number at epoch: 0

The dashed part of the orbit path shows where the satellite is in the earth's shadow,  

DLR